Tracking 19489 objects as of 22-Jan-2019
HD Live streaming from Space Station
objects crossing your sky now

INSAT 1B

Track INSAT 1B now!
INSAT 1B is classified as:


NORAD ID: 14318
Int'l Code: 1983-089B
Perigee: 35,737.9 km
Apogee: 35,789.1 km
Inclination: 14.5 °
Period: 1,434.6 minutes
Semi major axis: 42134 km
RCS: 3.9811 m2 (large)
Launch date: August 30, 1983
Source: India (IND)
Launch site: AIR FORCE EASTERN TEST RANGE (AFETR)
aabbcc
Your satellite tracking list
Your tracking list is empty




NASA's NSSDC Master Catalog

Two Line Element Set (TLE):
1 14318U 83089B   19021.44174656 -.00000031 +00000-0 +00000-0 0  9990
2 14318 014.4993 349.4415 0006073 215.5511 138.4893 01.00379670098067
Source of the keplerian elements: AFSPC